DW9918 Weather Reports


Display with metric or nautical units.
time (UTC)temp
F
wind
direction
speed
MPH
gust
MPH
rain 1hr
in
rain 24hr
in
rain mn
in
humidity
%
barometer
mb
20260904044520 67 205 0.0 0.0 0.00 0.00 0.00 81 1019.1
20260904043024 66 205 0.0 1.0 0.00 0.00 0.00 82 1019.2
20260904041524 67 205 0.0 0.0 0.00 0.00 0.00 81 1019.1
20260904040013 67 205 0.0 0.0 0.00 0.00 0.00 80 1018.8
20260904034527 67 205 0.0 0.0 0.00 0.00 0.00 80 1018.8
20260904033026 67 205 0.0 0.0 0.00 0.00 0.00 80 1018.7
20260904031526 68 205 0.0 0.0 0.00 0.00 0.00 79 1018.7
20260904030035 68 198 0.0 1.0 0.00 0.00 0.00 78 1018.6
20260904024522 68 153 0.0 1.0 0.00 0.00 0.00 78 1018.5
20260904023013 68 212 0.0 1.0 0.00 0.00 0.00 78 1018.6
20260904021534 68 203 0.0 0.0 0.00 0.00 0.00 78 1018.5
20260904020029 69 210 0.0 0.0 0.00 0.00 0.00 78 1018.4
20260904014528 69 198 0.0 2.0 0.00 0.00 0.00 77 1018.6
20260904013026 69 216 1.0 2.0 0.00 0.00 0.00 78 1018.7
20260904011527 69 202 0.0 1.0 0.00 0.00 0.00 78 1018.6
20260904010022 69 160 0.0 0.0 0.00 0.00 0.00 78 1018.6
20260904004516 70 158 0.0 1.0 0.00 0.00 0.00 78 1018.8
20260904003010 70 160 0.0 1.0 0.00 0.00 0.00 77 1018.7
20260904001505 71 203 0.0 2.0 0.00 0.00 0.00 78 1018.9
20260904000003 71 196 0.0 1.0 0.00 0.00 0.00 78 1019.0
20260903234510 71 160 0.0 1.0 0.00 0.00 0.00 79 1019.2
20260903233033 71 161 0.0 1.0 0.00 0.00 0.00 80 1019.2
20260903231520 71 204 0.0 1.0 0.00 0.00 0.00 81 1019.2
20260903230018 72 169 0.0 1.0 0.00 0.00 0.00 83 1018.9
20260903224511 72 188 0.0 1.0 0.00 0.00 0.00 82 1018.8
20260903223008 73 134 0.0 0.0 0.00 0.00 0.00 82 1018.6
20260903221545 72 129 0.0 1.0 0.00 0.00 0.00 84 1018.8
20260903220028 73 150 0.0 0.0 0.00 0.00 0.00 82 1018.7
20260903214528 74 151 0.0 0.0 0.00 0.00 0.00 82 1018.8
20260903213020 74 151 0.0 0.0 0.00 0.00 0.00 82 1018.8
20260903211517 74 151 0.0 0.0 0.00 0.00 0.00 83 1018.8
20260903210014 75 151 0.0 0.0 0.00 0.00 0.00 82 1018.7
20260903204531 75 151 0.0 0.0 0.00 0.00 0.00 81 1018.4
20260903203045 76 150 0.0 0.0 0.00 0.00 0.00 80 1018.4
20260903201526 76 150 0.0 1.0 0.00 0.00 0.00 80 1018.3
20260903200039 76 158 0.0 0.0 0.00 0.00 0.00 79 1018.2
20260903194534 76 164 0.0 1.0 0.00 0.00 0.00 77 1018.3
20260903193023 77 96 0.0 2.0 0.00 0.00 0.00 77 1018.3
20260903191535 77 113 0.0 1.0 0.00 0.00 0.00 76 1018.2
20260903191125 78 101 0.0 1.0 0.00 0.00 0.00 76 1018.3
20260903190137 78 82 0.0 1.0 0.00 0.00 0.00 75 1018.3
20260903190034 78 80 0.0 1.0 0.00 0.00 0.00 75 1018.1
20260903185137 79 94 0.0 1.0 0.00 0.00 0.00 75 1018.2
20260903184532 78 94 1.0 1.0 0.00 0.00 0.00 73 1018.1
20260903184218 79 94 0.0 1.0 0.00 0.00 0.00 74 1018.2
20260903183123 80 94 1.0 2.0 0.00 0.00 0.00 73 1018.2
20260903183029 79 94 1.0 2.0 0.00 0.00 0.00 72 1018.1
20260903182156 80 99 1.0 1.0 0.00 0.00 0.00 73 1018.2
20260903181527 79 99 0.0 2.0 0.00 0.00 0.00 72 1018.0
20260903181148 80 99 1.0 2.0 0.00 0.00 0.00 73 1018.1
20260903180033 80 100 1.0 3.0 0.00 0.00 0.00 72 1017.9
20260903174533 80 84 3.0 4.0 0.00 0.00 0.00 71 1017.8
20260903173034 81 95 3.0 4.0 0.00 0.00 0.00 70 1017.7
20260903171537 81 93 3.0 5.0 0.00 0.00 0.00 70 1017.7
20260903170032 82 94 5.0 6.0 0.00 0.00 0.00 69 1017.6
20260903164504 83 88 5.0 7.0 0.00 0.00 0.00 68 1017.5
20260903163038 83 92 5.0 8.0 0.00 0.00 0.00 68 1017.5
20260903161520 83 86 5.0 9.0 0.00 0.00 0.00 68 1017.4
20260903160016 83 84 7.0 10.0 0.00 0.00 0.00 66 1017.3
20260903154511 83 93 7.0 10.0 0.00 0.00 0.00 66 1017.6
20260903153008 84 92 5.0 8.0 0.00 0.00 0.00 62 1017.9
20260903151505 85 42 4.0 10.0 0.00 0.00 0.00 60 1017.8
20260903150026 85 34 5.0 9.0 0.00 0.00 0.00 59 1017.9
20260903144523 86 84 4.0 13.0 0.00 0.00 0.00 59 1017.9
20260903143017 86 100 8.0 12.0 0.00 0.00 0.00 61 1017.9
20260903141515 85 101 8.0 12.0 0.00 0.00 0.00 63 1018.0
20260903140017 87 74 5.0 9.0 0.00 0.00 0.00 59 1018.0
20260903134533 86 84 8.0 11.0 0.00 0.00 0.00 61 1018.1
20260903133028 86 70 6.0 11.0 0.00 0.00 0.00 61 1018.3
20260903131526 87 71 6.0 12.0 0.00 0.00 0.00 58 1018.2
20260903130027 89 7 4.0 8.0 0.00 0.00 0.00 47 1018.2
20260903124517 89 26 6.0 9.0 0.00 0.00 0.00 46 1018.1
20260903123013 89 27 1.0 8.0 0.00 0.00 0.00 52 1018.2
20260903121542 88 332 4.0 9.0 0.00 0.00 0.00 50 1018.4
20260903120034 88 330 4.0 9.0 0.00 0.00 0.00 50 1018.3
20260903114534 88 231 4.0 9.0 0.00 0.00 0.00 51 1018.4
20260903113035 88 27 4.0 8.0 0.00 0.00 0.00 51 1018.5
20260903111523 88 354 3.0 7.0 0.00 0.00 0.00 52 1018.7
20260903110034 87 338 3.0 10.0 0.00 0.00 0.00 51 1018.8
20260903104533 87 341 7.0 14.0 0.00 0.00 0.00 49 1018.9
20260903103035 87 330 4.0 11.0 0.00 0.00 0.00 49 1019.0
20260903101529 86 321 5.0 10.0 0.00 0.00 0.00 48 1019.4
20260903100031 86 331 4.0 10.0 0.00 0.00 0.00 53 1019.6
20260903094515 85 333 4.0 8.0 0.00 0.00 0.00 52 1019.6
20260903093002 85 8 3.0 8.0 0.00 0.00 0.00 57 1019.6
20260903091502 84 13 3.0 10.0 0.00 0.00 0.00 58 1019.7
20260903090010 84 311 4.0 8.0 0.00 0.00 0.00 57 1019.7
20260903084508 83 323 4.0 9.0 0.00 0.00 0.00 64 1019.6
20260903083003 82 340 4.0 9.0 0.00 0.00 0.00 64 1019.5
20260903081504 81 318 3.0 7.0 0.00 0.00 0.00 69 1019.4
20260903080005 80 328 4.0 8.0 0.00 0.00 0.00 72 1019.4
20260903074504 79 306 3.0 7.0 0.00 0.00 0.00 73 1019.4
20260903073013 77 308 4.0 6.0 0.00 0.00 0.00 76 1019.3
20260903071510 76 305 4.0 6.0 0.00 0.00 0.00 77 1019.3
20260903070007 75 290 3.0 5.0 0.00 0.00 0.00 79 1019.3
20260903065125 73 290 2.0 4.0 0.00 0.00 0.00 82 1019.1
20260903065122 72 250 3.0 4.0 0.00 0.00 0.00 82 1018.9
20260903065117 71 295 2.0 5.0 0.00 0.00 0.00 84 1019.0
20260903060136 70 255 3.0 4.0 0.00 0.00 0.00 86 1019.0
20260903060023 69 261 3.0 6.0 0.00 0.00 0.00 86 1018.9
20260903055139 70 250 3.0 6.0 0.00 0.00 0.00 86 1019.0
20260903054538 68 245 2.0 4.0 0.00 0.00 0.00 87 1018.8
20260903054151 69 249 1.0 4.0 0.00 0.00 0.00 88 1018.8
20260903053142 68 249 3.0 4.0 0.00 0.00 0.00 87 1018.8
20260903053013 67 245 3.0 4.0 0.00 0.00 0.00 87 1018.6
20260903052125 67 240 2.0 4.0 0.00 0.00 0.00 89 1018.7
20260903051508 66 223 2.0 5.0 0.00 0.00 0.00 88 1018.6
20260903051130 67 240 3.0 5.0 0.00 0.00 0.00 88 1018.7
20260903050203 67 245 1.0 4.0 0.00 0.00 0.00 88 1018.6
20260903050008 66 245 1.0 4.0 0.00 0.00 0.00 87 1018.4